BAW769 ENGM-EGLL

Flight info

Callsign BAW769
Flight time 1h 58m
Altitude 38000
Route VIPPA1A VIPPA DCT LINVI L39 GOLUM DCT UPGAS DCT TIPAN DCT WECOW DCT BINBO DCT AKOKO N866 BUKUT P7 BARMI BARMI1H
Aircraft A319/M-SDE2E3FGHIJ1RWXY/SB1

Departure

Time 2026-05-05 15:53
Airport Oslo-Gardermoen International Airport (ENGM)

Arrival

Time 2026-05-05 17:51
Airport London Heathrow Airport (EGLL)
Time Latitude Longitude Altitude Speed Heading
2026-05-05 14:24 60.19326 11.10421 681 ft 0 kts 16°
2026-05-05 15:42 60.19310 11.10412 685 ft 3 kts 16°
2026-05-05 15:42 60.19290 11.10400 683 ft 4 kts 28°
2026-05-05 15:42 60.19274 11.10370 685 ft 4 kts 92°
2026-05-05 15:42 60.19274 11.10363 685 ft 4 kts 106°
2026-05-05 15:43 60.19266 11.10415 685 ft 4 kts 106°
2026-05-05 15:43 60.19261 11.10452 681 ft 0 kts 106°
2026-05-05 15:46 60.19256 11.10486 680 ft 4 kts 105°
2026-05-05 15:47 60.19246 11.10560 684 ft 7 kts 106°
2026-05-05 15:47 60.19236 11.10628 684 ft 8 kts 106°
2026-05-05 15:47 60.19211 11.10802 684 ft 11 kts 106°
2026-05-05 15:47 60.19187 11.10971 685 ft 14 kts 106°
2026-05-05 15:48 60.19131 11.11111 684 ft 16 kts 185°
2026-05-05 15:48 60.19015 11.11046 683 ft 19 kts 196°
2026-05-05 15:48 60.18880 11.10970 683 ft 21 kts 196°
2026-05-05 15:48 60.18730 11.10882 683 ft 24 kts 196°
2026-05-05 15:49 60.18558 11.10784 682 ft 27 kts 196°
2026-05-05 15:49 60.18389 11.10685 680 ft 19 kts 196°
2026-05-05 15:49 60.18254 11.10608 680 ft 22 kts 196°
2026-05-05 15:49 60.18098 11.10518 678 ft 25 kts 196°
2026-05-05 15:50 60.17922 11.10416 678 ft 28 kts 196°
2026-05-05 15:50 60.17784 11.10336 677 ft 11 kts 196°
2026-05-05 15:50 60.17698 11.10287 676 ft 14 kts 195°
2026-05-05 15:50 60.17636 11.10435 675 ft 17 kts 105°
2026-05-05 15:51 60.17604 11.10664 679 ft 17 kts 100°
2026-05-05 15:51 60.17668 11.10832 680 ft 7 kts 16°
2026-05-05 15:51 60.17670 11.10832 680 ft 0 kts 16°
2026-05-05 15:51 60.17670 11.10833 680 ft 0 kts 16°
2026-05-05 15:52 60.17672 11.10834 680 ft 0 kts 16°
2026-05-05 15:52 60.17714 11.10858 677 ft 25 kts 16°
2026-05-05 15:53 60.18082 11.11071 682 ft 85 kts 16°
2026-05-05 15:53 60.18836 11.11506 682 ft 140 kts 16°
2026-05-05 15:53 60.19923 11.12122 860 ft 171 kts 14°
2026-05-05 15:53 60.20936 11.13330 1438 ft 181 kts 54°
2026-05-05 15:54 60.21326 11.15792 2015 ft 190 kts 78°
2026-05-05 15:54 60.21578 11.18541 2349 ft 215 kts 80°
2026-05-05 15:54 60.21855 11.21746 2643 ft 248 kts 79°
2026-05-05 15:54 60.22154 11.25166 3686 ft 245 kts 78°
2026-05-05 15:55 60.22333 11.28564 4718 ft 248 kts 96°
2026-05-05 15:55 60.21638 11.31712 5570 ft 252 kts 135°
2026-05-05 15:55 60.20165 11.33511 6441 ft 251 kts 163°
2026-05-05 15:55 60.18483 11.34538 6848 ft 251 kts 169°
2026-05-05 15:56 60.16759 11.34943 6977 ft 257 kts 186°
2026-05-05 15:56 60.14931 11.34368 6996 ft 270 kts 199°
2026-05-05 15:56 60.13178 11.33004 7013 ft 270 kts 211°
2026-05-05 15:56 60.11534 11.31183 7010 ft 270 kts 212°
2026-05-05 15:57 60.09880 11.29380 7010 ft 270 kts 212°
2026-05-05 15:57 60.08221 11.27597 7009 ft 270 kts 212°
2026-05-05 15:57 60.06556 11.25802 7249 ft 274 kts 212°
2026-05-05 15:57 60.04874 11.23979 8198 ft 275 kts 211°
2026-05-05 15:58 60.03179 11.22138 9104 ft 278 kts 211°
2026-05-05 15:58 60.01465 11.20277 9978 ft 282 kts 211°
2026-05-05 15:58 59.99691 11.18348 10368 ft 305 kts 211°
2026-05-05 15:58 59.97738 11.16223 10802 ft 323 kts 211°
2026-05-05 15:59 59.95748 11.14070 11571 ft 328 kts 212°
2026-05-05 15:59 59.93760 11.11923 12417 ft 330 kts 212°
2026-05-05 15:59 59.91736 11.09740 13253 ft 331 kts 212°
2026-05-05 15:59 59.89706 11.07558 14064 ft 333 kts 213°
2026-05-05 16:00 59.87667 11.05365 14855 ft 333 kts 213°
2026-05-05 16:00 59.85623 11.03164 15649 ft 334 kts 214°
2026-05-05 16:00 59.83573 11.00960 16417 ft 335 kts 214°
2026-05-05 16:00 59.81523 10.98757 17172 ft 336 kts 215°
2026-05-05 16:01 59.79462 10.96548 17894 ft 337 kts 216°
2026-05-05 16:01 59.77395 10.94334 18596 ft 338 kts 216°
2026-05-05 16:01 59.75315 10.92109 19280 ft 340 kts 216°
2026-05-05 16:01 59.73226 10.89884 19945 ft 342 kts 217°
2026-05-05 16:02 59.71126 10.87651 20598 ft 343 kts 217°
2026-05-05 16:02 59.69020 10.85410 21225 ft 345 kts 217°
2026-05-05 16:02 59.66906 10.83159 21834 ft 346 kts 217°
2026-05-05 16:02 59.64779 10.80897 22410 ft 348 kts 217°
2026-05-05 16:03 59.62671 10.78661 22969 ft 349 kts 217°
2026-05-05 16:03 59.60524 10.76388 23505 ft 351 kts 218°
2026-05-05 16:03 59.58364 10.74112 24033 ft 352 kts 218°
2026-05-05 16:03 59.56197 10.71832 24528 ft 353 kts 218°
2026-05-05 16:04 59.53909 10.69865 24960 ft 367 kts 209°
2026-05-05 16:04 59.51375 10.68654 25389 ft 381 kts 202°
2026-05-05 16:04 59.48757 10.67730 25821 ft 384 kts 201°
2026-05-05 16:04 59.46122 10.66804 26250 ft 386 kts 201°
2026-05-05 16:05 59.43470 10.65870 26663 ft 388 kts 201°
2026-05-05 16:05 59.40799 10.64927 27061 ft 391 kts 201°
2026-05-05 16:05 59.38113 10.63973 27461 ft 394 kts 201°
2026-05-05 16:05 59.35408 10.63008 27848 ft 396 kts 201°
2026-05-05 16:06 59.32688 10.62041 28233 ft 398 kts 201°
2026-05-05 16:06 59.29958 10.61070 28591 ft 400 kts 201°
2026-05-05 16:06 59.27204 10.60096 28936 ft 403 kts 200°
2026-05-05 16:06 59.24436 10.59124 29275 ft 405 kts 200°
2026-05-05 16:07 59.21652 10.58146 29598 ft 408 kts 200°
2026-05-05 16:07 59.18854 10.57159 29935 ft 410 kts 200°
2026-05-05 16:07 59.16047 10.56169 30272 ft 411 kts 200°
2026-05-05 16:07 59.13257 10.55190 30563 ft 414 kts 200°
2026-05-05 16:08 59.10418 10.54169 30828 ft 414 kts 202°
2026-05-05 16:08 59.07700 10.52513 31068 ft 406 kts 211°
2026-05-05 16:08 59.05235 10.49993 31388 ft 396 kts 220°
2026-05-05 16:08 59.03077 10.46754 31737 ft 389 kts 229°
2026-05-05 16:09 59.01809 10.44221 31964 ft 385 kts 234°
2026-05-05 16:09 59.00245 10.40119 32296 ft 382 kts 240°
2026-05-05 16:09 58.98767 10.35822 32635 ft 383 kts 240°
2026-05-05 16:09 58.97279 10.31536 32966 ft 384 kts 240°
2026-05-05 16:10 58.95781 10.27249 33300 ft 384 kts 239°
2026-05-05 16:10 58.94174 10.23087 33629 ft 388 kts 233°
2026-05-05 16:10 58.92203 10.19462 33960 ft 394 kts 226°
2026-05-05 16:10 58.90117 10.16012 34262 ft 395 kts 226°
2026-05-05 16:11 58.88026 10.12548 34566 ft 396 kts 226°
2026-05-05 16:11 58.81719 10.02145 35444 ft 399 kts 225°
2026-05-05 16:12 58.79605 9.98673 35732 ft 400 kts 225°
2026-05-05 16:12 58.75357 9.91707 36222 ft 402 kts 225°
2026-05-05 16:13 58.68934 9.81198 36973 ft 404 kts 225°
2026-05-05 16:13 58.66823 9.77758 37282 ft 403 kts 225°
2026-05-05 16:13 58.64684 9.74288 37588 ft 401 kts 224°
2026-05-05 16:14 58.60411 9.67362 37912 ft 402 kts 224°
2026-05-05 16:14 58.56133 9.60442 37925 ft 402 kts 224°
2026-05-05 16:15 58.47559 9.46652 37920 ft 402 kts 224°
2026-05-05 16:16 58.38976 9.32964 37923 ft 402 kts 224°
2026-05-05 16:17 58.32547 9.22773 37918 ft 402 kts 224°
2026-05-05 16:18 58.26089 9.12559 37924 ft 403 kts 224°
2026-05-05 16:19 58.19604 9.02367 37924 ft 403 kts 224°
2026-05-05 16:19 58.13118 8.92196 37924 ft 403 kts 224°
2026-05-05 16:20 58.04440 8.78681 37930 ft 404 kts 223°
2026-05-05 16:22 57.93589 8.61939 37935 ft 404 kts 223°
2026-05-05 16:23 57.84857 8.48548 37931 ft 404 kts 223°
2026-05-05 16:23 57.78307 8.38559 37929 ft 404 kts 223°
2026-05-05 16:24 57.73961 8.31963 37928 ft 404 kts 223°
2026-05-05 16:25 57.67405 8.22037 37924 ft 404 kts 223°
2026-05-05 16:25 57.60832 8.12149 37924 ft 404 kts 223°
2026-05-05 16:26 57.52059 7.98990 37923 ft 405 kts 223°
2026-05-05 16:27 57.47649 7.92434 37931 ft 406 kts 223°
2026-05-05 16:27 57.43264 7.85933 37937 ft 406 kts 223°
2026-05-05 16:28 57.38849 7.79400 37939 ft 406 kts 222°
2026-05-05 16:28 57.34437 7.72886 37937 ft 406 kts 222°
2026-05-05 16:29 57.30012 7.66376 37940 ft 406 kts 222°
2026-05-05 16:29 57.25584 7.59884 37948 ft 406 kts 222°
2026-05-05 16:30 57.21140 7.53385 37951 ft 407 kts 222°
2026-05-05 16:30 57.16707 7.46917 37954 ft 406 kts 222°
2026-05-05 16:31 57.12273 7.40472 37948 ft 406 kts 222°
2026-05-05 16:31 57.07834 7.34050 37947 ft 406 kts 221°
2026-05-05 16:32 57.03386 7.27634 37945 ft 407 kts 221°
2026-05-05 16:32 56.98954 7.21289 37946 ft 407 kts 221°
2026-05-05 16:33 56.94367 7.15158 37947 ft 408 kts 219°
2026-05-05 16:33 56.89719 7.09177 37949 ft 409 kts 219°
2026-05-05 16:34 56.85073 7.03171 37961 ft 409 kts 219°
2026-05-05 16:34 56.80443 6.97125 37957 ft 409 kts 219°
2026-05-05 16:35 56.75818 6.91089 37967 ft 409 kts 219°
2026-05-05 16:35 56.71178 6.85072 37963 ft 409 kts 219°
2026-05-05 16:36 56.66540 6.79082 37958 ft 409 kts 219°
2026-05-05 16:36 56.61895 6.73105 37971 ft 409 kts 219°
2026-05-05 16:37 56.57249 6.67141 37972 ft 409 kts 219°
2026-05-05 16:37 56.52601 6.61185 37959 ft 409 kts 218°
2026-05-05 16:38 56.47985 6.55287 37965 ft 409 kts 219°
2026-05-05 16:38 56.43331 6.49345 37969 ft 409 kts 218°
2026-05-05 16:39 56.38671 6.43450 37969 ft 409 kts 218°
2026-05-05 16:39 56.34007 6.37570 37979 ft 409 kts 218°
2026-05-05 16:40 56.29344 6.31675 37976 ft 410 kts 218°
2026-05-05 16:40 56.24671 6.25805 37979 ft 410 kts 218°
2026-05-05 16:41 56.19990 6.19948 37978 ft 410 kts 218°
2026-05-05 16:41 56.15304 6.14094 37978 ft 411 kts 218°
2026-05-05 16:42 56.10610 6.08249 37980 ft 411 kts 218°
2026-05-05 16:42 56.05912 6.02411 37983 ft 411 kts 218°
2026-05-05 16:43 56.01208 5.96582 37986 ft 411 kts 218°
2026-05-05 16:43 55.96505 5.90768 37985 ft 411 kts 218°
2026-05-05 16:44 55.91800 5.84981 37987 ft 411 kts 218°
2026-05-05 16:44 55.87090 5.79211 37991 ft 411 kts 218°
2026-05-05 16:45 55.82408 5.73488 37989 ft 411 kts 218°
2026-05-05 16:45 55.77690 5.67735 37991 ft 411 kts 217°
2026-05-05 16:46 55.72967 5.61991 37989 ft 411 kts 217°
2026-05-05 16:46 55.68240 5.56274 37991 ft 411 kts 217°
2026-05-05 16:47 55.63522 5.50566 37992 ft 411 kts 217°
2026-05-05 16:47 55.58798 5.44856 37994 ft 411 kts 217°
2026-05-05 16:48 55.54096 5.39215 37994 ft 411 kts 217°
2026-05-05 16:48 55.49355 5.33541 37993 ft 411 kts 217°
2026-05-05 16:49 55.44619 5.27853 37992 ft 411 kts 218°
2026-05-05 16:49 55.40061 5.21780 37990 ft 410 kts 221°
2026-05-05 16:50 55.35628 5.15452 37988 ft 410 kts 221°
2026-05-05 16:50 55.31173 5.09174 37991 ft 411 kts 221°
2026-05-05 16:51 55.26667 5.02985 37987 ft 411 kts 220°
2026-05-05 16:51 55.21886 4.97558 37986 ft 414 kts 211°
2026-05-05 16:52 55.16802 4.92783 37990 ft 415 kts 211°
2026-05-05 16:52 55.11719 4.87982 37991 ft 415 kts 211°
2026-05-05 16:53 55.06638 4.83199 37990 ft 415 kts 211°
2026-05-05 16:53 55.01552 4.78435 37989 ft 415 kts 211°
2026-05-05 16:54 54.96462 4.73685 37993 ft 416 kts 211°
2026-05-05 16:54 54.91353 4.68927 37997 ft 416 kts 211°
2026-05-05 16:55 54.87116 4.64995 37997 ft 416 kts 211°
2026-05-05 16:55 54.82011 4.60275 37996 ft 415 kts 211°
2026-05-05 16:56 54.76907 4.55553 37995 ft 416 kts 211°
2026-05-05 16:56 54.71796 4.50846 37995 ft 416 kts 210°
2026-05-05 16:57 54.66679 4.46158 37995 ft 416 kts 210°
2026-05-05 16:57 54.61554 4.41470 37996 ft 416 kts 210°
2026-05-05 16:58 54.56430 4.36787 37995 ft 417 kts 210°
2026-05-05 16:58 54.51305 4.32121 37996 ft 417 kts 210°
2026-05-05 16:59 54.46185 4.27472 37990 ft 416 kts 210°
2026-05-05 16:59 54.41089 4.22870 37985 ft 416 kts 210°
2026-05-05 17:00 54.35960 4.18247 37984 ft 417 kts 210°
2026-05-05 17:00 54.30822 4.13625 37986 ft 417 kts 210°
2026-05-05 17:01 54.25690 4.09012 37986 ft 417 kts 210°
2026-05-05 17:01 54.20549 4.04411 37982 ft 417 kts 210°
2026-05-05 17:02 54.15404 3.99822 37983 ft 417 kts 210°
2026-05-05 17:02 54.10249 3.95232 37982 ft 418 kts 210°
2026-05-05 17:03 54.05094 3.90658 37980 ft 418 kts 209°
2026-05-05 17:03 53.99936 3.86107 37982 ft 418 kts 209°
2026-05-05 17:04 53.94775 3.81559 37983 ft 418 kts 209°
2026-05-05 17:04 53.89648 3.77037 37985 ft 418 kts 209°
2026-05-05 17:05 53.84486 3.72508 37986 ft 418 kts 209°
2026-05-05 17:05 53.79318 3.67989 37988 ft 418 kts 209°
2026-05-05 17:06 53.74147 3.63474 37984 ft 418 kts 209°
2026-05-05 17:06 53.68988 3.58990 37983 ft 417 kts 209°
2026-05-05 17:07 53.63824 3.54515 37979 ft 417 kts 209°
2026-05-05 17:07 53.58690 3.50068 37978 ft 417 kts 209°
2026-05-05 17:08 53.53518 3.45605 37978 ft 418 kts 209°
2026-05-05 17:08 53.48345 3.41149 37979 ft 418 kts 208°
2026-05-05 17:09 53.43164 3.36711 37980 ft 418 kts 208°
2026-05-05 17:09 53.37983 3.32273 37983 ft 418 kts 208°
2026-05-05 17:10 53.32800 3.27848 37977 ft 418 kts 208°
2026-05-05 17:10 53.27607 3.23442 37978 ft 418 kts 208°
2026-05-05 17:11 53.22418 3.19049 37976 ft 418 kts 208°
2026-05-05 17:11 53.17263 3.14683 37968 ft 418 kts 208°
2026-05-05 17:12 53.12042 3.10276 37959 ft 418 kts 208°
2026-05-05 17:12 53.06888 3.05928 37956 ft 418 kts 208°
2026-05-05 17:13 53.01688 3.01563 37960 ft 419 kts 208°
2026-05-05 17:13 52.96484 2.97216 37963 ft 418 kts 207°
2026-05-05 17:14 52.91289 2.92890 37964 ft 418 kts 207°
2026-05-05 17:14 52.86089 2.88574 37863 ft 419 kts 207°
2026-05-05 17:15 52.83483 2.86416 37615 ft 419 kts 207°
2026-05-05 17:15 52.80872 2.84252 37375 ft 418 kts 207°
2026-05-05 17:15 52.78275 2.82100 37118 ft 417 kts 207°
2026-05-05 17:15 52.75683 2.79953 36867 ft 417 kts 207°
2026-05-05 17:16 52.73096 2.77808 36500 ft 416 kts 207°
2026-05-05 17:16 52.70503 2.75656 35767 ft 420 kts 207°
2026-05-05 17:16 52.67878 2.73482 34965 ft 424 kts 207°
2026-05-05 17:16 52.65224 2.71293 34168 ft 428 kts 207°
2026-05-05 17:17 52.62554 2.69100 33278 ft 431 kts 207°
2026-05-05 17:17 52.59848 2.66884 32345 ft 436 kts 207°
2026-05-05 17:17 52.57155 2.64684 31889 ft 429 kts 207°
2026-05-05 17:17 52.54495 2.62515 31339 ft 424 kts 207°
2026-05-05 17:18 52.51867 2.60370 30802 ft 419 kts 207°
2026-05-05 17:18 52.49270 2.58246 30245 ft 414 kts 207°
2026-05-05 17:18 52.46746 2.56188 29937 ft 408 kts 206°
2026-05-05 17:18 52.44213 2.54131 29734 ft 404 kts 206°
2026-05-05 17:19 52.41690 2.52082 29593 ft 404 kts 206°
2026-05-05 17:19 52.39170 2.50030 29444 ft 404 kts 206°
2026-05-05 17:19 52.36658 2.47988 29296 ft 403 kts 206°
2026-05-05 17:19 52.34146 2.45951 29151 ft 403 kts 206°
2026-05-05 17:20 52.31633 2.43920 29006 ft 402 kts 206°
2026-05-05 17:20 52.29124 2.41897 28855 ft 402 kts 206°
2026-05-05 17:20 52.26620 2.39882 28715 ft 401 kts 206°
2026-05-05 17:20 52.24118 2.37867 28565 ft 401 kts 206°
2026-05-05 17:21 52.21615 2.35853 28419 ft 401 kts 206°
2026-05-05 17:21 52.19119 2.33844 28277 ft 400 kts 206°
2026-05-05 17:21 52.16624 2.31839 28130 ft 400 kts 206°
2026-05-05 17:22 52.11693 2.27661 27833 ft 399 kts 213°
2026-05-05 17:22 52.09517 2.24868 27694 ft 399 kts 223°
2026-05-05 17:22 52.07628 2.21542 27547 ft 400 kts 228°
2026-05-05 17:22 52.05804 2.18143 27402 ft 399 kts 228°
2026-05-05 17:23 52.03977 2.14750 27251 ft 399 kts 227°
2026-05-05 17:23 52.02167 2.11403 27098 ft 399 kts 227°
2026-05-05 17:23 52.00336 2.08027 26962 ft 398 kts 227°
2026-05-05 17:23 51.98503 2.04653 26810 ft 398 kts 227°
2026-05-05 17:24 51.96675 2.01287 26668 ft 398 kts 227°
2026-05-05 17:24 51.94848 1.97918 26520 ft 398 kts 227°
2026-05-05 17:24 51.93020 1.94550 26376 ft 397 kts 227°
2026-05-05 17:24 51.91197 1.91196 26232 ft 397 kts 228°
2026-05-05 17:25 51.89370 1.87846 26086 ft 396 kts 227°
2026-05-05 17:25 51.88162 1.85636 25994 ft 396 kts 227°
2026-05-05 17:25 51.85716 1.81173 25800 ft 396 kts 227°
2026-05-05 17:25 51.83892 1.77841 25652 ft 395 kts 227°
2026-05-05 17:26 51.82074 1.74522 25511 ft 395 kts 227°
2026-05-05 17:26 51.80252 1.71197 25359 ft 394 kts 227°
2026-05-05 17:26 51.78431 1.67879 25225 ft 394 kts 227°
2026-05-05 17:26 51.76696 1.64448 25075 ft 394 kts 235°
2026-05-05 17:27 51.75384 1.60621 24936 ft 396 kts 246°
2026-05-05 17:27 51.74514 1.56396 24335 ft 400 kts 257°
2026-05-05 17:27 51.74152 1.51935 23702 ft 401 kts 264°
2026-05-05 17:27 51.73890 1.47456 23095 ft 400 kts 264°
2026-05-05 17:28 51.73612 1.42998 22478 ft 399 kts 263°
2026-05-05 17:28 51.73323 1.38549 21880 ft 397 kts 263°
2026-05-05 17:28 51.73029 1.34140 21278 ft 396 kts 263°
2026-05-05 17:28 51.72730 1.29708 20673 ft 395 kts 263°
2026-05-05 17:29 51.72435 1.25319 20074 ft 393 kts 263°
2026-05-05 17:29 51.72142 1.20947 19479 ft 390 kts 263°
2026-05-05 17:29 51.71851 1.16613 18888 ft 388 kts 263°
2026-05-05 17:29 51.71566 1.12346 18305 ft 385 kts 263°
2026-05-05 17:30 51.71273 1.08016 17715 ft 382 kts 263°
2026-05-05 17:30 51.70982 1.03771 17133 ft 378 kts 263°
2026-05-05 17:30 51.70695 0.99585 16563 ft 374 kts 263°
2026-05-05 17:30 51.70410 0.95436 16072 ft 368 kts 263°
2026-05-05 17:31 51.70134 0.91417 15928 ft 356 kts 263°
2026-05-05 17:31 51.69864 0.87521 15952 ft 353 kts 263°
2026-05-05 17:31 51.69590 0.83594 15952 ft 353 kts 263°
2026-05-05 17:31 51.69315 0.79665 15952 ft 353 kts 263°
2026-05-05 17:32 51.69036 0.75737 15952 ft 353 kts 263°
2026-05-05 17:32 51.68754 0.71810 15952 ft 353 kts 263°
2026-05-05 17:32 51.68470 0.67884 15952 ft 353 kts 263°
2026-05-05 17:32 51.68189 0.63967 15952 ft 353 kts 263°
2026-05-05 17:33 51.67909 0.60043 15951 ft 350 kts 263°
2026-05-05 17:33 51.67638 0.56245 15949 ft 333 kts 263°
2026-05-05 17:33 51.67378 0.52625 15951 ft 321 kts 263°
2026-05-05 17:33 51.67120 0.49070 15953 ft 318 kts 263°
2026-05-05 17:34 51.66861 0.45535 15952 ft 317 kts 263°
2026-05-05 17:34 51.66604 0.42007 15952 ft 317 kts 263°
2026-05-05 17:34 51.66352 0.38554 15951 ft 304 kts 263°
2026-05-05 17:34 51.66107 0.35247 15950 ft 291 kts 263°
2026-05-05 17:35 51.65870 0.32066 15953 ft 282 kts 263°
2026-05-05 17:35 51.65636 0.28947 15960 ft 280 kts 263°
2026-05-05 17:35 51.65409 0.25916 15841 ft 278 kts 263°
2026-05-05 17:35 51.65174 0.22835 15580 ft 277 kts 263°
2026-05-05 17:36 51.64939 0.19760 15310 ft 276 kts 263°
2026-05-05 17:36 51.64704 0.16706 15042 ft 275 kts 263°
2026-05-05 17:36 51.64372 0.13691 14768 ft 273 kts 250°
2026-05-05 17:36 51.63386 0.11118 14495 ft 271 kts 225°
2026-05-05 17:37 51.62054 0.08974 14196 ft 271 kts 233°
2026-05-05 17:37 51.61461 0.07220 14013 ft 269 kts 252°
2026-05-05 17:37 51.61092 0.03251 13633 ft 269 kts 265°
2026-05-05 17:37 51.60966 0.00460 13382 ft 268 kts 266°
2026-05-05 17:38 51.60839 -0.02527 13114 ft 267 kts 266°
2026-05-05 17:38 51.60712 -0.05493 12859 ft 265 kts 266°
2026-05-05 17:38 51.60580 -0.08449 12584 ft 264 kts 266°
2026-05-05 17:38 51.60445 -0.11353 12299 ft 264 kts 266°
2026-05-05 17:39 51.60303 -0.14323 12010 ft 264 kts 266°
2026-05-05 17:39 51.60165 -0.17222 11737 ft 263 kts 266°
2026-05-05 17:39 51.60026 -0.20134 11462 ft 262 kts 266°
2026-05-05 17:39 51.59886 -0.23068 11184 ft 261 kts 266°
2026-05-05 17:40 51.59746 -0.25973 10903 ft 260 kts 266°
2026-05-05 17:40 51.59602 -0.28873 10623 ft 260 kts 266°
2026-05-05 17:40 51.59457 -0.31764 10349 ft 259 kts 266°
2026-05-05 17:40 51.59314 -0.34643 10078 ft 258 kts 266°
2026-05-05 17:41 51.59170 -0.37513 9803 ft 257 kts 266°
2026-05-05 17:41 51.59028 -0.40366 9522 ft 255 kts 266°
2026-05-05 17:41 51.58882 -0.43210 9230 ft 255 kts 266°
2026-05-05 17:41 51.58734 -0.46050 8942 ft 255 kts 266°
2026-05-05 17:42 51.58643 -0.48886 8653 ft 253 kts 270°
2026-05-05 17:42 51.58636 -0.51708 8373 ft 252 kts 271°
2026-05-05 17:42 51.58637 -0.54525 8092 ft 251 kts 271°
2026-05-05 17:42 51.58634 -0.57322 7949 ft 251 kts 271°
2026-05-05 17:43 51.58631 -0.59177 7942 ft 250 kts 271°
2026-05-05 17:43 51.58628 -0.61958 7701 ft 248 kts 271°
2026-05-05 17:43 51.58624 -0.64735 7402 ft 248 kts 271°
2026-05-05 17:43 51.58618 -0.67503 7134 ft 247 kts 271°
2026-05-05 17:44 51.58608 -0.70265 6849 ft 246 kts 271°
2026-05-05 17:44 51.58596 -0.73012 6577 ft 245 kts 271°
2026-05-05 17:44 51.58583 -0.75742 6280 ft 243 kts 271°
2026-05-05 17:44 51.58569 -0.78454 5908 ft 242 kts 271°
2026-05-05 17:45 51.58480 -0.81111 5535 ft 242 kts 258°
2026-05-05 17:45 51.57694 -0.83473 5162 ft 242 kts 226°
2026-05-05 17:45 51.56257 -0.84828 4770 ft 242 kts 193°
2026-05-05 17:45 51.54591 -0.85135 4353 ft 242 kts 182°
2026-05-05 17:46 51.52906 -0.85238 4023 ft 240 kts 181°
2026-05-05 17:46 51.51237 -0.85321 4000 ft 241 kts 181°
2026-05-05 17:46 51.49545 -0.85371 4005 ft 243 kts 176°
2026-05-05 17:46 51.47966 -0.84553 3996 ft 239 kts 143°
2026-05-05 17:47 51.47024 -0.82495 4002 ft 223 kts 101°
2026-05-05 17:47 51.47139 -0.80171 3874 ft 207 kts 65°
2026-05-05 17:47 51.47669 -0.78052 3625 ft 206 kts 77°
2026-05-05 17:47 51.47610 -0.75741 3391 ft 209 kts 91°
2026-05-05 17:48 51.47603 -0.73428 3108 ft 207 kts 85°
2026-05-05 17:48 51.47628 -0.71136 2834 ft 204 kts 86°
2026-05-05 17:48 51.47647 -0.68880 2570 ft 201 kts 88°
2026-05-05 17:48 51.47661 -0.66644 2295 ft 199 kts 89°
2026-05-05 17:49 51.47673 -0.64444 2032 ft 194 kts 91°
2026-05-05 17:49 51.47685 -0.62348 1782 ft 183 kts 91°
2026-05-05 17:49 51.47695 -0.60375 1540 ft 175 kts 91°
2026-05-05 17:49 51.47704 -0.58453 1372 ft 170 kts 88°
2026-05-05 17:50 51.47713 -0.56583 1108 ft 165 kts 88°
2026-05-05 17:50 51.47721 -0.54715 878 ft 161 kts 88°
2026-05-05 17:50 51.47728 -0.53046 672 ft 141 kts 88°
2026-05-05 17:50 51.47735 -0.51516 482 ft 134 kts 88°
2026-05-05 17:51 51.47741 -0.50043 315 ft 131 kts 88°
2026-05-05 17:51 51.47748 -0.48590 145 ft 130 kts 88°
2026-05-05 17:51 51.47758 -0.47242 88 ft 99 kts 90°
2026-05-05 17:51 51.47758 -0.46558 90 ft 45 kts 89°
2026-05-05 17:52 51.47734 -0.46178 87 ft 27 kts 136°
2026-05-05 17:52 51.47649 -0.46083 89 ft 4 kts 145°
2026-05-05 17:52 51.47646 -0.46080 87 ft 0 kts 145°
2026-05-05 17:53 51.47645 -0.46079 86 ft 2 kts 145°
2026-05-05 17:53 51.47614 -0.46051 88 ft 7 kts 162°
2026-05-05 17:53 51.47566 -0.46083 87 ft 9 kts 211°
2026-05-05 17:53 51.47516 -0.46116 89 ft 10 kts 264°
2026-05-05 17:54 51.47480 -0.46187 89 ft 11 kts 170°
2026-05-05 17:54 51.47410 -0.46112 90 ft 14 kts 146°
2026-05-05 17:54 51.47344 -0.46040 88 ft 7 kts 145°
2026-05-05 17:54 51.47344 -0.45972 89 ft 9 kts 46°
2026-05-05 17:55 51.47369 -0.45918 86 ft 2 kts 55°
2026-05-05 17:55 51.47373 -0.45911 87 ft 0 kts 55°
2026-05-05 18:01 51.47373 -0.45910 89 ft 0 kts 55°